Weather in Novosarinskiy

Russia / Orenburg Oblast     51°29′01″N   57°54′10″E
temp.,
°C
wind,
m/s
gust,
m/s
humid.,
%
clouds,
%
prec.,
mm/h
press.,
hPa
HPBL,
m
25 february, thu
thu2523:00−23nnw2397100 0.1 102239
02:00−25nw448998 0.1 102464
05:00−25wnw348970 0.1 102737
08:00−26wnw33910 0.0 103022
11:00−23wnw23910 0.0 103291
14:00−20w22850 0.0 1032172
17:00−22wsw45930 0.0 1033129
20:00−27w44940 0.0 103465
26 february, fri
fri2623:00−28w449410 0.0 103455
02:00−27wsw339498 0.0 103373
05:00−25sw359299 0.0 1032112
08:00−24s3598100 0.1 1030152
11:00−21sse3598100 0.3 1028207
14:00−17se4794100 0.2 1026444
17:00−16se5895100 0.4 1025483
20:00−17se5997100 0.3 1024296
27 february, sat
sat2723:00−18se4999100 0.4 1023253
02:00−18se5998100 0.1 1020260
05:00−18se51098100 0.3 1018262
08:00−16se61097100 0.2 1015279
11:00−12se71195100 0.9 1012342
14:00−5s61195100 3.3 1008653
17:00−3ssw61194100 3.9 1006570
20:00−1ssw4899100 0.9 1005319
28 february, sun
sun2823:00+1wsw5998100 1.8 1005396
02:000wsw51097100 0.4 1004527
05:00−2wsw3597100 0.6 1005105
08:00−1sw3798100 0.9 1004286
11:000wsw6995100 1.6 1005604
14:000wsw589688 0.3 1005663
17:00−1wsw7119394 0.9 1007681
20:00−3wsw6119479 0.2 1009391
1 march, mon
mon123:00−6wsw479662 0.3 1010109
02:00−6ssw349731 0.1 101178
05:00−5sw379665 0.4 1011158
08:00−6sw3696100 0.2 1012135
11:00−4wsw4694100 0.3 1012241
14:00−2w4693100 0.0 1012474
17:00−13w479480 0.0 1017210
20:00−16w489593 0.0 1018157